[[{"header":{"parameterUnit":"m.s-1","parameterCategory":1,"la1":30.2991,"la2":30.254,"lo1":-89.0895,"lo2":-89.0444,"dy":0.0017,"dx":0.0017,"nx":28,"ny":28,"refTime":"2023-09-01T21:00:00:Z","depth":0,"parameterNumber":2,"parameterNumberName":"U-component_of_WINDS"},"data":[0,0,0,0,0,0,0,0,0,0,0,0,0,0,0,0,0,0,0,0,0,0,0,0,0,0,0,0,0,0,0,0,0,0,0,0,0,0,0,0,0,0,0,0,0,0,0,0,0,0,0,0,0,0,0,0,0,0,-1.2706,-1.2706,0,-1.2669,-1.2669,-1.2668,-1.2634,-1.2634,-1.2633,-1.2633,-1.2594,-1.2594,-1.2593,0,0,0,0,0,0,0,0,0,0,0,0,0,-1.2747,-1.2746,-1.2706,-1.2706,-1.2705,-1.2669,-1.2669,-1.2668,-1.2634,-1.2634,-1.2633,-1.2633,-1.2595,-1.2594,-1.2593,0,0,0,0,0,0,0,0,0,0,0,0,0,-1.2721,-1.2746,-1.2706,-1.2684,-1.2682,-1.2669,-1.2669,-1.2668,-1.2634,-1.2634,-1.2633,-1.2633,-1.2595,-1.2594,-1.2593,-1.2599,0,0,-1.259,-1.259,0,0,0,0,0,0,0,0,-1.2723,-1.272,-1.2688,-1.2686,-1.2683,-1.2656,-1.2669,-1.2645,-1.2635,-1.2652,-1.2633,-1.2632,-1.2615,-1.2613,-1.2607,-1.2597,-1.2596,-1.259,-1.2589,-1.2589,-1.2589,0,0,0,0,0,0,0,-1.2724,-1.2721,-1.2692,-1.2687,-1.2684,-1.2675,-1.2671,-1.2664,-1.2638,-1.2651,-1.2648,-1.2644,-1.2614,-1.2608,-1.2606,-1.2595,-1.259,-1.2589,-1.2588,-1.2588,-1.2587,-1.2588,0,0,0,0,0,0,-1.273,-1.2723,-1.2693,-1.269,-1.2702,-1.2675,-1.267,-1.2665,-1.2638,-1.2633,-1.2645,-1.2643,-1.261,-1.2607,-1.2604,-1.2609,-1.2589,-1.2588,-1.2587,-1.2586,-1.2587,-1.2588,0,0,0,0,0,0,-1.2731,-1.2727,-1.2694,-1.2706,-1.2701,-1.2675,-1.2669,-1.2665,-1.2659,-1.2633,-1.2628,-1.2644,-1.2609,-1.2606,-1.26,-1.2607,-1.2588,-1.2587,-1.2586,-1.2587,-1.2587,-1.2618,0,0,0,0,0,0,-1.2732,-1.2728,-1.2731,-1.2706,-1.2701,-1.2692,-1.267,-1.2664,-1.2657,-1.2654,-1.2631,-1.2626,-1.2609,-1.2602,-1.2599,-1.2605,-1.2586,-1.2585,-1.2586,-1.2587,-1.2616,-1.262,-1.2623,0,0,0,0,0,-1.2734,-1.2741,-1.2731,-1.2728,-1.2703,-1.2692,-1.2689,-1.2668,-1.2658,-1.266,-1.2643,-1.2627,-1.2607,-1.2602,-1.2599,-1.2604,-1.2585,-1.2586,-1.2587,-1.2615,-1.2619,-1.2623,0,0,0,0,0,0,-1.2767,-1.2738,-1.2726,-1.2726,-1.2712,-1.2686,-1.2688,-1.2674,-1.2662,-1.266,-1.2634,-1.2629,-1.2627,-1.2615,-1.261,-1.2608,-1.2593,-1.2594,-1.2616,-1.2619,-1.2623,-1.2625,-1.2585,0,0,0,0,0,-1.2774,-1.2768,-1.2742,-1.2745,-1.2738,-1.2715,-1.2709,-1.2694,-1.2678,-1.2672,-1.2655,-1.264,-1.263,-1.2624,-1.2614,-1.2615,-1.2608,-1.2617,-1.262,-1.2623,-1.2623,-1.2621,-1.2624,-1.2592,-1.2592,-1.2592,0,0,-1.279,-1.2773,-1.277,-1.2751,-1.2738,-1.2732,-1.271,-1.2704,-1.2699,-1.2671,-1.2665,-1.2652,-1.2633,-1.2631,-1.2629,-1.2621,-1.2631,-1.2624,-1.2627,-1.2626,-1.2623,-1.2626,-1.2629,-1.2593,-1.2593,-1.2592,0,0,-1.2814,-1.2801,-1.28,-1.2788,-1.2769,-1.2753,-1.2753,-1.2729,-1.2719,-1.2713,-1.2692,-1.2684,-1.2668,-1.2655,-1.2647,-1.2664,-1.2649,-1.2662,-1.2678,-1.2677,-1.2679,-1.2681,-1.2686,-1.2689,-1.2662,-1.2663,-1.2663,0,-1.2835,-1.2824,-1.2802,-1.2797,-1.2789,-1.2763,-1.2762,-1.2751,-1.273,-1.2724,-1.2716,-1.2693,-1.2679,-1.2673,-1.2677,-1.2671,-1.2669,-1.2664,-1.2681,-1.2683,-1.2684,-1.2689,-1.2691,-1.2664,-1.2664,-1.2664,-1.2664,0,-1.2851,-1.2844,-1.2846,-1.2825,-1.2817,-1.2814,-1.2791,-1.2785,-1.277,-1.2755,-1.2748,-1.273,-1.2714,-1.2712,-1.2698,-1.2702,-1.2698,-1.2686,-1.267,-1.2689,-1.2693,-1.2695,-1.2666,-1.2666,-1.2665,-1.2665,0,0,-1.2895,-1.2862,-1.2863,-1.2852,-1.2829,-1.2823,-1.2818,-1.2803,-1.2798,-1.2784,-1.2778,-1.2764,-1.2752,-1.2742,-1.2726,-1.2725,-1.2738,-1.2712,-1.2711,-1.2717,-1.2741,-1.275,-1.2752,-1.2728,-1.2728,-1.2728,-1.2742,0,-1.2915,-1.2905,-1.2885,-1.2881,-1.2874,-1.2849,-1.2845,-1.2829,-1.2814,-1.2805,-1.2789,-1.2779,-1.2764,-1.2758,-1.2755,-1.2737,-1.2743,-1.2736,-1.2722,-1.2721,-1.2726,-1.2754,-1.2764,-1.2778,-1.2743,-1.2743,-1.2744,0,-1.2936,-1.2923,-1.2919,-1.2895,-1.2891,-1.2887,-1.2871,-1.2863,-1.2844,-1.2833,-1.2822,-1.2804,-1.2797,-1.2783,-1.2772,-1.2768,-1.276,-1.2751,-1.2751,-1.2748,-1.2733,-1.2752,-1.2782,-1.2784,-1.2746,-1.2746,-1.2746,0,-1.2968,-1.2949,-1.2944,-1.2936,-1.2908,-1.2906,-1.2894,-1.2874,-1.2866,-1.2852,-1.2846,-1.2831,-1.2822,-1.2811,-1.2789,-1.2781,-1.2779,-1.2764,-1.2769,-1.277,-1.277,-1.277,-1.2799,-1.2766,-1.2766,-1.2766,-1.2766,0,-1.2991,-1.299,-1.2957,-1.2954,-1.2951,-1.2927,-1.2924,-1.291,-1.2893,-1.2885,-1.2863,-1.2857,-1.2829,-1.2818,-1.2801,-1.2794,-1.279,-1.2781,-1.2776,-1.2782,-1.2783,-1.2777,-1.2775,-1.2767,-1.2767,-1.2767,-1.2767,0,-1.3026,-1.3005,-1.2997,-1.2971,-1.2964,-1.2963,-1.2939,-1.2935,-1.2918,-1.2909,-1.2906,-1.2879,-1.2866,-1.2843,-1.2824,-1.2812,-1.2808,-1.28,-1.2814,-1.2811,-1.2817,-1.2816,-1.2842,-1.2843,-1.2811,-1.2811,-1.2812,0,-1.3042,-1.304,-1.3013,-1.3007,-1.2996,-1.2986,-1.2977,-1.2953,-1.2944,-1.2922,-1.292,-1.2905,-1.2892,-1.2871,-1.285,-1.2834,-1.2826,-1.2836,-1.2823,-1.2829,-1.2825,-1.2825,-1.2824,-1.2839,-1.2839,-1.284,-1.284,0,-1.3073,-1.3062,-1.3051,-1.3035,-1.3025,-1.3011,-1.2997,-1.2992,-1.2964,-1.2956,-1.2942,-1.2932,-1.2911,-1.2896,-1.2877,-1.2864,-1.2847,-1.2844,-1.2844,-1.285,-1.2858,-1.2853,-1.2821,-1.2843,-1.2843,-1.2843,-1.2843,-1.2843,-1.3098,-1.3095,-1.3075,-1.3062,-1.3048,-1.3035,-1.3029,-1.3011,-1.2999,-1.2981,-1.2967,-1.2954,-1.2933,-1.2906,-1.2894,-1.2882,-1.2874,-1.2875,-1.2875,-1.2875,-1.2877,-1.286,-1.2879,-1.2879,-1.2878,-1.2878,-1.2878,0,-1.3127,-1.3112,-1.3101,-1.3081,-1.3071,-1.3056,-1.3038,-1.303,-1.3019,-1.3002,-1.2989,-1.2972,-1.2957,-1.2934,-1.2917,-1.2912,-1.2904,-1.2908,-1.2908,-1.2905,-1.2886,-1.2887,-1.2915,-1.2915,-1.2915,-1.2915,-1.2915,-1.2915,-1.314,-1.3133,-1.312,-1.3105,-1.309,-1.3077,-1.3069,-1.3055,-1.3041,-1.3024,-1.3011,-1.2996,-1.2976,-1.2957,-1.2942,-1.2936,-1.293,-1.2937,-1.2928,-1.291,-1.2907,-1.2903,-1.2904,-1.2936,-1.2936,-1.2948,-1.2948,-1.2948]},{"header":{"parameterUnit":"m.s-1","parameterCategory":1,"la1":30.2991,"la2":30.254,"lo1":-89.0895,"lo2":-89.0444,"dy":0.0017,"dx":0.0017,"nx":28,"ny":28,"refTime":"2023-09-01T21:00:00:Z","depth":0,"parameterNumber":3,"parameterNumberName":"V-component_of_WINDS"},"data":[0,0,0,0,0,0,0,0,0,0,0,0,0,0,0,0,0,0,0,0,0,0,0,0,0,0,0,0,0,0,0,0,0,0,0,0,0,0,0,0,0,0,0,0,0,0,0,0,0,0,0,0,0,0,0,0,0,0,-1.5516,-1.5516,0,-1.5532,-1.5533,-1.5533,-1.5528,-1.5527,-1.5527,-1.5526,-1.5543,-1.5544,-1.5544,0,0,0,0,0,0,0,0,0,0,0,0,0,-1.5477,-1.5478,-1.5516,-1.5516,-1.5516,-1.5532,-1.5533,-1.5533,-1.5528,-1.5527,-1.5527,-1.5526,-1.5543,-1.5544,-1.5545,0,0,0,0,0,0,0,0,0,0,0,0,0,-1.5494,-1.5478,-1.5516,-1.5515,-1.5516,-1.5532,-1.5533,-1.5533,-1.5528,-1.5527,-1.5527,-1.5526,-1.5542,-1.5544,-1.5545,-1.5563,0,0,-1.5548,-1.5549,0,0,0,0,0,0,0,0,-1.5493,-1.5495,-1.5515,-1.5515,-1.5516,-1.5527,-1.5525,-1.5543,-1.5528,-1.5523,-1.5526,-1.5526,-1.5538,-1.554,-1.5544,-1.5563,-1.5564,-1.5548,-1.5549,-1.555,-1.555,0,0,0,0,0,0,0,-1.5492,-1.5495,-1.5522,-1.5516,-1.5516,-1.5514,-1.5516,-1.5528,-1.5533,-1.5523,-1.5523,-1.5525,-1.5538,-1.5543,-1.5544,-1.5564,-1.5548,-1.5549,-1.555,-1.555,-1.5597,-1.5598,0,0,0,0,0,0,-1.5491,-1.5494,-1.5522,-1.5523,-1.5503,-1.5515,-1.5517,-1.5524,-1.5533,-1.5534,-1.5526,-1.5525,-1.5541,-1.5543,-1.5545,-1.5565,-1.5549,-1.5551,-1.5551,-1.5597,-1.5598,-1.5598,0,0,0,0,0,0,-1.549,-1.5493,-1.5521,-1.5508,-1.5512,-1.5516,-1.5524,-1.5525,-1.5529,-1.5535,-1.5536,-1.553,-1.5541,-1.5543,-1.5558,-1.5566,-1.5551,-1.5552,-1.5596,-1.5597,-1.5598,-1.5607,0,0,0,0,0,0,-1.5489,-1.5493,-1.55,-1.5508,-1.5512,-1.5534,-1.5525,-1.5525,-1.5532,-1.5531,-1.5539,-1.554,-1.5541,-1.5556,-1.5559,-1.5567,-1.5553,-1.5596,-1.5597,-1.5598,-1.5606,-1.5609,-1.561,0,0,0,0,0,-1.5487,-1.5503,-1.5501,-1.5504,-1.5522,-1.5535,-1.5537,-1.5538,-1.5532,-1.5539,-1.5542,-1.5539,-1.5565,-1.5558,-1.5561,-1.557,-1.5595,-1.5596,-1.5598,-1.5606,-1.5608,-1.561,0,0,0,0,0,0,-1.5496,-1.5504,-1.5502,-1.552,-1.5527,-1.5534,-1.5543,-1.5541,-1.5549,-1.5548,-1.5549,-1.5551,-1.5565,-1.5569,-1.5561,-1.5587,-1.5579,-1.5581,-1.5584,-1.5586,-1.5588,-1.5587,-1.5554,0,0,0,0,0,-1.55,-1.551,-1.5516,-1.5532,-1.5535,-1.5539,-1.5544,-1.5544,-1.5551,-1.5554,-1.5559,-1.5565,-1.5574,-1.5581,-1.5589,-1.5607,-1.5608,-1.5614,-1.5616,-1.5618,-1.5619,-1.5628,-1.563,-1.5602,-1.5602,-1.5602,0,0,-1.5508,-1.5514,-1.552,-1.5534,-1.5539,-1.5549,-1.5541,-1.5553,-1.556,-1.5556,-1.557,-1.5573,-1.558,-1.5596,-1.5603,-1.56,-1.5627,-1.5619,-1.562,-1.5621,-1.5629,-1.5632,-1.5634,-1.5603,-1.5603,-1.5603,0,0,-1.5529,-1.5534,-1.5547,-1.5552,-1.556,-1.5562,-1.5565,-1.5572,-1.5574,-1.5588,-1.5585,-1.5593,-1.5609,-1.5614,-1.5619,-1.5639,-1.5636,-1.5642,-1.5652,-1.566,-1.5662,-1.5664,-1.5671,-1.5673,-1.5644,-1.5644,-1.5644,0,-1.5538,-1.5554,-1.5554,-1.5565,-1.5571,-1.5567,-1.558,-1.5585,-1.5595,-1.5598,-1.5594,-1.5613,-1.5618,-1.5634,-1.5639,-1.5643,-1.5646,-1.5641,-1.5662,-1.5664,-1.5666,-1.5672,-1.5675,-1.5644,-1.5644,-1.5644,-1.5644,0,-1.5564,-1.5575,-1.5585,-1.5594,-1.5601,-1.5613,-1.5614,-1.562,-1.5619,-1.5621,-1.5635,-1.564,-1.5649,-1.5653,-1.5652,-1.5669,-1.5666,-1.5662,-1.5654,-1.5669,-1.5675,-1.5678,-1.5645,-1.5645,-1.5645,-1.5645,0,0,-1.5592,-1.56,-1.5604,-1.5607,-1.5615,-1.5623,-1.5634,-1.5643,-1.5648,-1.5655,-1.5664,-1.5677,-1.5673,-1.5678,-1.5677,-1.5684,-1.5699,-1.5679,-1.5679,-1.5682,-1.5717,-1.572,-1.5723,-1.5697,-1.5698,-1.5698,-1.5716,0,-1.5612,-1.5632,-1.5632,-1.565,-1.5659,-1.5655,-1.5665,-1.567,-1.5672,-1.5679,-1.5681,-1.569,-1.5684,-1.5687,-1.5694,-1.5696,-1.5706,-1.5695,-1.5705,-1.5705,-1.5703,-1.5726,-1.5729,-1.5746,-1.5718,-1.5719,-1.5719,0,-1.564,-1.5647,-1.5666,-1.567,-1.5674,-1.5683,-1.569,-1.5698,-1.5703,-1.5704,-1.5709,-1.5707,-1.5717,-1.5709,-1.5723,-1.5715,-1.5719,-1.5721,-1.5721,-1.5722,-1.5713,-1.5727,-1.5751,-1.5754,-1.5723,-1.5722,-1.5722,0,-1.5657,-1.5671,-1.5684,-1.5687,-1.5694,-1.5699,-1.5702,-1.5707,-1.5712,-1.5718,-1.5721,-1.5729,-1.5733,-1.5738,-1.5738,-1.5732,-1.5752,-1.5744,-1.5752,-1.5752,-1.5757,-1.5756,-1.5782,-1.576,-1.576,-1.576,-1.5759,0,-1.568,-1.5692,-1.5692,-1.57,-1.5712,-1.5711,-1.5723,-1.5725,-1.5729,-1.5737,-1.5734,-1.5741,-1.574,-1.5747,-1.5747,-1.5758,-1.576,-1.576,-1.576,-1.5761,-1.5761,-1.5763,-1.5762,-1.576,-1.576,-1.576,-1.576,0,-1.5702,-1.5702,-1.5716,-1.572,-1.5721,-1.573,-1.5733,-1.574,-1.5741,-1.5751,-1.5753,-1.5754,-1.5762,-1.5763,-1.5772,-1.5772,-1.5785,-1.5784,-1.5783,-1.5783,-1.5791,-1.579,-1.5819,-1.5823,-1.5798,-1.5799,-1.5799,0,-1.5717,-1.5725,-1.573,-1.5735,-1.5737,-1.5745,-1.575,-1.5749,-1.5754,-1.576,-1.5766,-1.5773,-1.578,-1.5792,-1.5794,-1.5801,-1.5799,-1.5809,-1.58,-1.58,-1.5799,-1.5798,-1.5799,-1.5811,-1.5811,-1.5811,-1.5811,0,-1.5742,-1.5742,-1.5749,-1.5755,-1.5761,-1.5766,-1.5771,-1.5775,-1.5774,-1.578,-1.5788,-1.5792,-1.5801,-1.5809,-1.5815,-1.5817,-1.5814,-1.5814,-1.5816,-1.5817,-1.5816,-1.5816,-1.5788,-1.5813,-1.5813,-1.5813,-1.5813,-1.5813,-1.5761,-1.5768,-1.5772,-1.5779,-1.5782,-1.5786,-1.5793,-1.5794,-1.5801,-1.5808,-1.5806,-1.5815,-1.5819,-1.5827,-1.5829,-1.5836,-1.5832,-1.5836,-1.5837,-1.5837,-1.5838,-1.5815,-1.5837,-1.5837,-1.5837,-1.5837,-1.5837,0,-1.5786,-1.5788,-1.5794,-1.5801,-1.5806,-1.5802,-1.5807,-1.5812,-1.5819,-1.5823,-1.5829,-1.5837,-1.5844,-1.5845,-1.5852,-1.5856,-1.5855,-1.5858,-1.5858,-1.5858,-1.5841,-1.5838,-1.5859,-1.5859,-1.5859,-1.5859,-1.5859,-1.5859,-1.5799,-1.5811,-1.581,-1.5822,-1.5824,-1.5832,-1.5835,-1.5839,-1.5842,-1.5851,-1.5857,-1.5857,-1.586,-1.5866,-1.5872,-1.5872,-1.5874,-1.5878,-1.5877,-1.5862,-1.5859,-1.5857,-1.5855,-1.5878,-1.5878,-1.5894,-1.5894,-1.5894]}]]